Weather History for Clarinda, IA

Change the Weather History Date:

Thursday, January 31, 2013

  Actual Average Record
Temperature  
Mean Temperature 8 °F -  
Max Temperature 15 °F 34 °F 60 °F (2009)
Min Temperature 0 °F 17 °F -4 °F (2007)
Degree Days  
Heating Degree Days 58    
Moisture  
Dew Point -3 °F    
Average Humidity 61    
Maximum Humidity 79    
Minimum Humidity 48    
Precipitation  
Precipitation 0.00 in - - ()
Sea Level Pressure  
Sea Level Pressure 30.18 in    
Wind  
Wind Speed 10 mph (NW)    
Max Wind Speed 23 mph    
Max Gust Speed 34 mph    
Visibility 10 miles    
Events      
Averages and records for this station are not official NWS values.
T = Trace of Precipitation, MM = Missing Value Source: NWS Daily Summary

Daily Weather History Graph

Daily Weather History Graph

Search for Another Location

Airport:

Trip Planner

Search our weather history database for the weather conditions in past years. The results will help you decide how hot, cold, wet, or windy it might be!

Date:

Astronomy

Jan. 31, 2013 Rise Set
Actual Time 7:30 AM CST 5:36 PM CST
Civil Twilight 7:01 AM CST 6:05 PM CST
Nautical Twilight 6:29 AM CST 6:38 PM CST
Astronomical Twilight 5:56 AM CST 7:10 PM CST
Moon 10:42 PM CST (1/31) 9:28 AM CST (1/31)
Length of Visible Light 11h 04m
Length of Day
10h 06m
Waning Gibbous, 79% of the Moon is Illuminated
Jan 31
Waning Gibbous
Feb 3
Last Quarter
Feb 10
New
Feb 17
First Quarter
Feb 25
Full

Hourly Weather History & Observations

Time (CST) Temp. Windchill Dew Point Humidity Pressure Visibility Wind Dir Wind Speed Gust Speed Precip Events Conditions
12:15 AM 15.8 °F 7.2 °F 8.6 °F 73% 29.93 in 10.0 mi WNW 5.8 mph - N/A   Overcast
12:35 AM 15.8 °F 10.2 °F 8.6 °F 73% 29.93 in 10.0 mi West 3.5 mph - N/A   Overcast
12:55 AM 15.8 °F - 10.4 °F 79% 29.94 in 10.0 mi Calm Calm - N/A   Overcast
1:15 AM 15.8 °F 10.2 °F 10.4 °F 79% 29.94 in 10.0 mi NW 3.5 mph - N/A   Overcast
1:35 AM 15.8 °F 5.1 °F 8.6 °F 73% 29.94 in 10.0 mi NW 8.1 mph - N/A   Overcast
1:55 AM 14.0 °F 3.9 °F 6.8 °F 73% 29.94 in 10.0 mi NNW 6.9 mph - N/A   Scattered Clouds
2:15 AM 14.0 °F 2.9 °F 3.2 °F 62% 29.94 in 10.0 mi NNW 8.1 mph - N/A   Mostly Cloudy
2:35 AM 12.2 °F -0.2 °F 3.2 °F 67% 29.95 in 10.0 mi NNW 9.2 mph - N/A   Overcast
2:55 AM 12.2 °F 0.7 °F 3.2 °F 67% 29.96 in 10.0 mi NW 8.1 mph - N/A   Overcast
3:15 AM 12.2 °F -0.2 °F 3.2 °F 67% 29.95 in 10.0 mi NW 9.2 mph - N/A   Overcast
3:35 AM 12.2 °F -0.2 °F 3.2 °F 67% 29.96 in 10.0 mi NW 9.2 mph 12.7 mph N/A   Overcast
3:55 AM 12.2 °F -1.8 °F 3.2 °F 67% 29.96 in 10.0 mi NW 11.5 mph - N/A   Overcast
4:15 AM 12.2 °F -0.2 °F 3.2 °F 67% 29.95 in 10.0 mi NW 9.2 mph 16.1 mph N/A   Overcast
4:35 AM 10.4 °F -4.1 °F 1.4 °F 67% 29.96 in 10.0 mi NW 11.5 mph - N/A   Overcast
4:55 AM 10.4 °F -5.4 °F 1.4 °F 67% 29.98 in 10.0 mi NW 13.8 mph 18.4 mph N/A   Overcast
5:15 AM 10.4 °F -3.3 °F 1.4 °F 67% 29.99 in 10.0 mi NW 10.4 mph 16.1 mph N/A   Overcast
5:35 AM 10.4 °F -1.5 °F -0.4 °F 62% 30.00 in 10.0 mi NW 8.1 mph - N/A   Overcast
5:55 AM 8.6 °F -3.7 °F -0.4 °F 67% 30.01 in 10.0 mi WNW 8.1 mph - N/A   Scattered Clouds
6:15 AM 8.6 °F -3.7 °F -2.2 °F 62% 30.02 in 10.0 mi NNW 8.1 mph - N/A   Scattered Clouds
6:55 AM 6.8 °F -7.8 °F -5.8 °F 56% 30.03 in 10.0 mi NW 10.4 mph 17.3 mph N/A   Mostly Cloudy
7:15 AM 6.8 °F -7.8 °F -5.8 °F 56% 30.04 in 10.0 mi NNW 10.4 mph - N/A   Scattered Clouds
7:35 AM 6.8 °F -6.9 °F -5.8 °F 56% 30.04 in 10.0 mi NNW 9.2 mph - N/A   Clear
7:55 AM 6.8 °F -8.6 °F -4.0 °F 61% 30.07 in 10.0 mi WNW 11.5 mph 17.3 mph N/A   Clear
8:15 AM 6.8 °F -8.6 °F -4.0 °F 61% 30.07 in 10.0 mi NW 11.5 mph - N/A   Clear
8:35 AM 6.8 °F -9.3 °F -5.8 °F 56% 30.09 in 10.0 mi NW 12.7 mph - N/A   Clear
8:55 AM 6.8 °F -6.9 °F -4.0 °F 61% 30.10 in 10.0 mi NW 9.2 mph - N/A   Clear
9:15 AM 8.6 °F -9.5 °F -5.8 °F 52% 30.10 in 10.0 mi NW 17.3 mph 21.9 mph N/A   Clear
9:35 AM 8.6 °F -6.3 °F -4.0 °F 57% 30.12 in 10.0 mi NW 11.5 mph 19.6 mph N/A   Clear
9:55 AM 8.6 °F -8.3 °F -4.0 °F 57% 30.13 in 10.0 mi NW 15.0 mph 24.2 mph N/A   Clear
10:15 AM 8.6 °F -8.9 °F -4.0 °F 57% 30.15 in 10.0 mi NW 16.1 mph 25.3 mph N/A   Clear
10:35 AM 8.6 °F -8.9 °F -4.0 °F 57% 30.15 in 10.0 mi NNW 16.1 mph 24.2 mph N/A   Clear
10:55 AM 8.6 °F -10.5 °F -5.8 °F 52% 30.18 in 10.0 mi NW 19.6 mph 26.5 mph N/A   Clear
11:15 AM 8.6 °F -11.9 °F -2.2 °F 62% 30.19 in 7.0 mi NW 23.0 mph 34.5 mph N/A   Clear
11:35 AM 8.6 °F -11.4 °F -2.2 °F 62% 30.20 in 7.0 mi NW 21.9 mph 32.2 mph N/A   Scattered Clouds
11:55 AM 8.6 °F -8.9 °F -4.0 °F 57% 30.22 in 10.0 mi NW 16.1 mph 28.8 mph N/A   Scattered Clouds
12:15 PM 8.6 °F -10.5 °F -4.0 °F 57% 30.23 in 7.0 mi NW 19.6 mph 28.8 mph N/A   Scattered Clouds
12:35 PM 8.6 °F -8.9 °F -2.2 °F 62% 30.23 in 7.0 mi NW 16.1 mph 28.8 mph N/A   Scattered Clouds
12:55 PM 8.6 °F -9.5 °F -4.0 °F 57% 30.24 in 10.0 mi NW 17.3 mph 31.1 mph N/A   Scattered Clouds
1:15 PM 8.6 °F -9.5 °F -5.8 °F 52% 30.24 in 10.0 mi NW 17.3 mph 31.1 mph N/A   Scattered Clouds
1:35 PM 8.6 °F -10.0 °F -5.8 °F 52% 30.24 in 10.0 mi NW 18.4 mph 26.5 mph N/A   Scattered Clouds
1:55 PM 8.6 °F -11.0 °F -5.8 °F 52% 30.25 in 7.0 mi NW 20.7 mph 27.6 mph N/A   Clear
2:15 PM 8.6 °F -10.5 °F -4.0 °F 57% 30.26 in 7.0 mi NW 19.6 mph 27.6 mph N/A   Clear
2:35 PM 8.6 °F -7.7 °F -5.8 °F 52% 30.27 in 10.0 mi NNW 13.8 mph 24.2 mph N/A   Clear
2:55 PM 8.6 °F -7.0 °F -4.0 °F 57% 30.27 in 10.0 mi NW 12.7 mph 24.2 mph N/A   Clear
3:15 PM 8.6 °F -8.9 °F -5.8 °F 52% 30.28 in 10.0 mi NW 16.1 mph 25.3 mph N/A   Clear
3:35 PM 8.6 °F -8.3 °F -5.8 °F 52% 30.29 in 10.0 mi NW 15.0 mph 25.3 mph N/A   Clear
3:55 PM 8.6 °F -8.9 °F -5.8 °F 52% 30.29 in 10.0 mi NW 16.1 mph 23.0 mph N/A   Clear
4:15 PM 8.6 °F -10.0 °F -7.6 °F 48% 30.30 in 10.0 mi WNW 18.4 mph 25.3 mph N/A   Clear
4:35 PM 8.6 °F -9.5 °F -7.6 °F 48% 30.31 in 10.0 mi NW 17.3 mph 24.2 mph N/A   Clear
4:55 PM 6.8 °F -11.3 °F -7.6 °F 52% 30.31 in 10.0 mi NW 16.1 mph 23.0 mph N/A   Clear
5:15 PM 6.8 °F -9.3 °F -7.6 °F 52% 30.32 in 10.0 mi NW 12.7 mph 20.7 mph N/A   Clear
5:35 PM 6.8 °F -7.8 °F -7.6 °F 52% 30.32 in 10.0 mi NW 10.4 mph 18.4 mph N/A   Clear
5:55 PM 5.0 °F -8.1 °F -7.6 °F 56% 30.33 in 10.0 mi NNW 8.1 mph - N/A   Clear
6:15 PM 5.0 °F -9.1 °F -7.6 °F 56% 30.34 in 10.0 mi NW 9.2 mph - N/A   Clear
6:35 PM 3.2 °F -9.1 °F -7.6 °F 61% 30.35 in 10.0 mi NW 6.9 mph - N/A   Clear
7:15 PM 3.2 °F -10.3 °F -7.6 °F 61% 30.37 in 10.0 mi NW 8.1 mph - N/A   Clear
7:35 PM 3.2 °F -10.3 °F -7.6 °F 61% 30.37 in 10.0 mi NW 8.1 mph - N/A   Clear
7:55 PM 3.2 °F -7.8 °F -7.6 °F 61% 30.38 in 10.0 mi WNW 5.8 mph - N/A   Clear
8:15 PM 1.4 °F -12.5 °F -7.6 °F 66% 30.38 in 10.0 mi WNW 8.1 mph - N/A   Clear
8:35 PM 3.2 °F -11.3 °F -7.6 °F 61% 30.38 in 10.0 mi NW 9.2 mph - N/A   Clear
8:55 PM 1.4 °F -9.9 °F -7.6 °F 66% 30.38 in 10.0 mi NNW 5.8 mph - N/A   Clear
9:15 PM 1.4 °F -9.9 °F -9.4 °F 61% 30.39 in 10.0 mi North 5.8 mph - N/A   Clear
9:35 PM 1.4 °F -8.3 °F -9.4 °F 61% 30.39 in 10.0 mi NNW 4.6 mph - N/A   Clear
10:15 PM 1.4 °F -8.3 °F -9.4 °F 61% 30.42 in 10.0 mi WNW 4.6 mph - N/A   Clear
10:35 PM 1.4 °F -8.3 °F -9.4 °F 61% 30.42 in 10.0 mi WNW 4.6 mph - N/A   Clear
10:55 PM -0.4 °F - -11.2 °F 60% 30.43 in 10.0 mi Calm Calm - N/A   Clear
11:15 PM -0.4 °F -10.4 °F -9.4 °F 66% 30.43 in 10.0 mi WNW 4.6 mph - N/A   Clear
11:35 PM -0.4 °F -10.4 °F -9.4 °F 66% 30.43 in 10.0 mi NW 4.6 mph - N/A   Clear